| time (UTC) | temp F | wind direction | speed MPH | gust MPH | rain 1hr in | rain 24hr in | rain mn in | humidity % | barometer mb |
| 20260905131556 | 48 | 0 | 0.0 | 0.0 | 0.00 | 0.00 | 0.00 | 81 | 1013.1 |
| 20260905131056 | 48 | 0 | 0.0 | 0.0 | 0.00 | 0.00 | 0.00 | 80 | 1014.3 |
| 20260905130556 | 48 | 0 | 0.0 | 0.0 | 0.00 | 0.00 | 0.00 | 80 | 1013.1 |
| 20260905130056 | 48 | 0 | 0.0 | 0.0 | 0.00 | 0.00 | 0.00 | 80 | 1013.5 |
| 20260905125556 | 48 | 0 | 0.0 | 0.0 | 0.00 | 0.00 | 0.00 | 80 | 1013.1 |
| 20260905125056 | 48 | 0 | 0.0 | 0.0 | 0.00 | 0.00 | 0.00 | 80 | 1013.1 |
| 20260905124556 | 48 | 0 | 0.0 | 0.0 | 0.00 | 0.00 | 0.00 | 80 | 1013.0 |
| 20260905124056 | 48 | 0 | 0.0 | 0.0 | 0.00 | 0.00 | 0.00 | 80 | 1013.4 |
| 20260905123556 | 48 | 0 | 0.0 | 0.0 | 0.00 | 0.00 | 0.00 | 80 | 1013.1 |
| 20260905123056 | 48 | 0 | 0.0 | 0.0 | 0.00 | 0.00 | 0.00 | 80 | 1013.5 |
| 20260905122556 | 48 | 0 | 0.0 | 0.0 | 0.00 | 0.00 | 0.00 | 80 | 1013.0 |
| 20260905122056 | 48 | 0 | 0.0 | 0.0 | 0.00 | 0.00 | 0.00 | 80 | 1013.3 |
| 20260905121556 | 48 | 0 | 0.0 | 0.0 | 0.00 | 0.00 | 0.00 | 80 | 1013.1 |
| 20260905121056 | 48 | 0 | 0.0 | 0.0 | 0.00 | 0.00 | 0.00 | 80 | 1013.0 |
| 20260905120556 | 48 | 0 | 0.0 | 0.0 | 0.00 | 0.00 | 0.00 | 80 | 1013.3 |
| 20260905120056 | 48 | 0 | 0.0 | 0.0 | 0.00 | 0.00 | 0.00 | 80 | 1013.4 |
| 20260905115556 | 48 | 0 | 0.0 | 0.0 | 0.00 | 0.00 | 0.00 | 80 | 1012.8 |
| 20260905115056 | 48 | 0 | 0.0 | 0.0 | 0.00 | 0.00 | 0.00 | 80 | 1012.8 |
| 20260905114556 | 49 | 0 | 0.0 | 0.0 | 0.00 | 0.00 | 0.00 | 80 | 1013.2 |
| 20260905114056 | 49 | 0 | 0.0 | 0.0 | 0.00 | 0.01 | 0.00 | 80 | 1012.8 |
| 20260905113556 | 48 | 0 | 0.0 | 0.0 | 0.00 | 0.01 | 0.00 | 80 | 1012.8 |
| 20260905113056 | 48 | 0 | 0.0 | 0.0 | 0.00 | 0.01 | 0.00 | 80 | 1013.6 |
| 20260905112556 | 48 | 0 | 0.0 | 0.0 | 0.00 | 0.01 | 0.00 | 80 | 1012.7 |
| 20260905112056 | 48 | 0 | 0.0 | 0.0 | 0.00 | 0.01 | 0.00 | 80 | 1012.8 |
| 20260905111556 | 48 | 0 | 0.0 | 0.0 | 0.00 | 0.01 | 0.00 | 80 | 1013.2 |
| 20260905111057 | 48 | 0 | 0.0 | 0.0 | 0.00 | 0.01 | 0.00 | 80 | 1013.4 |
| 20260905110556 | 48 | 0 | 0.0 | 0.0 | 0.00 | 0.01 | 0.00 | 80 | 1012.8 |
| 20260905110056 | 48 | 0 | 0.0 | 0.0 | 0.00 | 0.01 | 0.00 | 80 | 1013.7 |
| 20260905105556 | 49 | 0 | 0.0 | 0.0 | 0.00 | 0.01 | 0.00 | 80 | 1012.8 |
| 20260905105056 | 48 | 0 | 0.0 | 0.0 | 0.00 | 0.01 | 0.00 | 80 | 1012.8 |
| 20260905104556 | 49 | 0 | 0.0 | 0.0 | 0.00 | 0.01 | 0.00 | 80 | 1013.2 |
| 20260905104056 | 48 | 0 | 0.0 | 0.0 | 0.00 | 0.02 | 0.00 | 80 | 1012.8 |
| 20260905103556 | 48 | 0 | 0.0 | 0.0 | 0.00 | 0.02 | 0.00 | 80 | 1012.8 |
| 20260905103056 | 48 | 0 | 0.0 | 0.0 | 0.00 | 0.02 | 0.00 | 80 | 1013.6 |
| 20260905102556 | 48 | 0 | 0.0 | 0.0 | 0.00 | 0.02 | 0.00 | 80 | 1012.8 |
| 20260905102056 | 48 | 0 | 0.0 | 0.0 | 0.00 | 0.02 | 0.00 | 80 | 1012.8 |
| 20260905101556 | 48 | 0 | 0.0 | 0.0 | 0.00 | 0.02 | 0.00 | 80 | 1013.7 |
| 20260905101056 | 48 | 0 | 0.0 | 0.0 | 0.00 | 0.02 | 0.00 | 80 | 1013.2 |
| 20260905100556 | 48 | 0 | 0.0 | 0.0 | 0.00 | 0.02 | 0.00 | 80 | 1013.3 |
| 20260905100056 | 48 | 0 | 0.0 | 0.0 | 0.00 | 0.02 | 0.00 | 80 | 1013.5 |
| 20260905095556 | 48 | 0 | 0.0 | 0.0 | 0.00 | 0.02 | 0.00 | 80 | 1012.8 |
| 20260905094556 | 48 | 0 | 0.0 | 0.0 | 0.00 | 0.02 | 0.00 | 79 | 1013.2 |
| 20260905094056 | 48 | 0 | 0.0 | 0.0 | 0.00 | 0.03 | 0.00 | 79 | 1013.0 |
| 20260905093556 | 48 | 0 | 0.0 | 0.0 | 0.00 | 0.03 | 0.00 | 79 | 1012.8 |
| 20260905093056 | 48 | 0 | 0.0 | 0.0 | 0.00 | 0.03 | 0.00 | 79 | 1013.2 |
| 20260905092556 | 48 | 0 | 0.0 | 0.0 | 0.00 | 0.03 | 0.00 | 78 | 1012.8 |
| 20260905092056 | 48 | 0 | 0.0 | 0.0 | 0.00 | 0.03 | 0.00 | 79 | 1012.8 |
| 20260905091556 | 48 | 0 | 0.0 | 0.0 | 0.00 | 0.03 | 0.00 | 79 | 1013.1 |
| 20260905091056 | 48 | 0 | 0.0 | 0.0 | 0.00 | 0.03 | 0.00 | 79 | 1013.3 |
| 20260905090556 | 48 | 0 | 0.0 | 0.0 | 0.00 | 0.03 | 0.00 | 79 | 1012.7 |
| 20260905090056 | 48 | 0 | 0.0 | 0.0 | 0.00 | 0.03 | 0.00 | 81 | 1012.7 |
| 20260905085556 | 48 | 0 | 0.0 | 0.0 | 0.00 | 0.03 | 0.00 | 80 | 1012.8 |
| 20260905085056 | 48 | 0 | 0.0 | 0.0 | 0.00 | 0.03 | 0.00 | 80 | 1012.7 |
| 20260905084556 | 48 | 0 | 0.0 | 0.0 | 0.00 | 0.03 | 0.00 | 80 | 1012.7 |
| 20260905084056 | 48 | 0 | 0.0 | 0.0 | 0.00 | 0.04 | 0.00 | 80 | 1012.7 |
| 20260905083556 | 48 | 0 | 0.0 | 0.0 | 0.00 | 0.04 | 0.00 | 80 | 1013.1 |
| 20260905083056 | 48 | 0 | 0.0 | 0.0 | 0.00 | 0.04 | 0.00 | 80 | 1012.7 |
| 20260905082556 | 48 | 0 | 0.0 | 0.0 | 0.00 | 0.04 | 0.00 | 80 | 1012.6 |
| 20260905082056 | 48 | 0 | 0.0 | 0.0 | 0.00 | 0.04 | 0.00 | 80 | 1012.6 |
| 20260905081556 | 48 | 0 | 0.0 | 0.0 | 0.00 | 0.04 | 0.00 | 80 | 1012.6 |
| 20260905081056 | 48 | 0 | 0.0 | 0.0 | 0.00 | 0.04 | 0.00 | 80 | 1013.4 |
| 20260905080556 | 48 | 0 | 0.0 | 0.0 | 0.00 | 0.04 | 0.00 | 80 | 1012.5 |
| 20260905080056 | 48 | 0 | 0.0 | 0.0 | 0.00 | 0.04 | 0.00 | 80 | 1013.2 |
| 20260905075556 | 48 | 0 | 0.0 | 0.0 | 0.00 | 0.04 | 0.00 | 80 | 1012.6 |
| 20260905075056 | 48 | 0 | 0.0 | 0.0 | 0.00 | 0.04 | 0.00 | 80 | 1012.8 |
| 20260905074556 | 48 | 0 | 0.0 | 0.0 | 0.00 | 0.04 | 0.00 | 80 | 1012.4 |
| 20260905074146 | 48 | 0 | 0.0 | 0.0 | 0.00 | 0.04 | 0.00 | 80 | 1012.7 |
| 20260905074056 | 48 | 0 | 0.0 | 0.0 | 0.00 | 0.04 | 0.00 | 80 | 1012.7 |
| 20260905073556 | 48 | 0 | 0.0 | 3.0 | 0.00 | 0.04 | 0.00 | 80 | 1012.7 |
| 20260905073056 | 48 | 116 | 0.0 | 3.0 | 0.00 | 0.04 | 0.00 | 80 | 1012.8 |
| 20260905072556 | 48 | 105 | 0.0 | 3.0 | 0.00 | 0.04 | 0.00 | 80 | 1012.4 |
| 20260905072056 | 48 | 0 | 0.0 | 0.0 | 0.00 | 0.04 | 0.00 | 80 | 1012.6 |
| 20260905071556 | 48 | 200 | 0.0 | 0.0 | 0.00 | 0.04 | 0.00 | 80 | 1012.4 |
| 20260905071056 | 48 | 0 | 0.0 | 0.0 | 0.00 | 0.04 | 0.00 | 80 | 1012.3 |
| 20260905070556 | 48 | 0 | 0.0 | 1.0 | 0.00 | 0.04 | 0.00 | 80 | 1012.3 |
| 20260905070057 | 48 | 306 | 0.0 | 1.0 | 0.00 | 0.04 | 0.00 | 80 | 1012.3 |
| 20260905065556 | 48 | 306 | 0.0 | 1.0 | 0.00 | 0.04 | 0.00 | 81 | 1013.3 |
| 20260905065056 | 48 | 0 | 0.0 | 0.0 | 0.00 | 0.04 | 0.00 | 80 | 1012.2 |
| 20260905064556 | 48 | 357 | 0.0 | 0.0 | 0.00 | 0.04 | 0.00 | 81 | 1012.6 |
| 20260905064056 | 48 | 0 | 0.0 | 1.0 | 0.00 | 0.04 | 0.00 | 81 | 1011.9 |
| 20260905063556 | 48 | 0 | 0.0 | 1.0 | 0.00 | 0.04 | 0.00 | 80 | 1012.1 |
| 20260905063056 | 48 | 357 | 0.0 | 1.0 | 0.00 | 0.04 | 0.00 | 81 | 1011.9 |
| 20260905062647 | 48 | 0 | 0.0 | 2.0 | 0.00 | 0.04 | 0.00 | 81 | 1011.9 |
| 20260905062556 | 48 | 0 | 0.0 | 2.0 | 0.00 | 0.04 | 0.00 | 81 | 1011.9 |
| 20260905062056 | 48 | 0 | 0.0 | 2.0 | 0.00 | 0.04 | 0.00 | 81 | 1011.9 |
| 20260905061556 | 48 | 100 | 0.0 | 2.0 | 0.00 | 0.04 | 0.00 | 81 | 1012.4 |
| 20260905061056 | 48 | 357 | 0.0 | 0.0 | 0.00 | 0.04 | 0.00 | 81 | 1011.9 |
| 20260905060557 | 48 | 0 | 0.0 | 0.0 | 0.00 | 0.04 | 0.00 | 81 | 1012.6 |
| 20260905060056 | 48 | 0 | 0.0 | 0.0 | 0.00 | 0.04 | 0.00 | 81 | 1012.1 |
| 20260905055556 | 48 | 170 | 0.0 | 0.0 | 0.00 | 0.04 | 0.00 | 81 | 1012.1 |
| 20260905055056 | 48 | 0 | 0.0 | 0.0 | 0.00 | 0.04 | 0.00 | 81 | 1012.1 |
| 20260905054556 | 48 | 0 | 0.0 | 0.0 | 0.00 | 0.04 | 0.00 | 81 | 1012.1 |
| 20260905054055 | 48 | 170 | 0.0 | 0.0 | 0.00 | 0.04 | 0.00 | 81 | 1012.5 |
| 20260905053556 | 48 | 89 | 0.0 | 0.0 | 0.00 | 0.04 | 0.00 | 81 | 1012.6 |
| 20260905053055 | 48 | 89 | 0.0 | 0.0 | 0.00 | 0.04 | 0.00 | 81 | 1013.5 |
| 20260905052555 | 48 | 0 | 0.0 | 0.0 | 0.00 | 0.04 | 0.00 | 81 | 1012.3 |
| 20260905052055 | 48 | 0 | 0.0 | 1.0 | 0.00 | 0.04 | 0.00 | 81 | 1012.6 |
| 20260905051556 | 48 | 92 | 0.0 | 1.0 | 0.00 | 0.04 | 0.00 | 79 | 1012.3 |
| 20260905051055 | 48 | 88 | 0.0 | 1.0 | 0.00 | 0.04 | 0.00 | 81 | 1012.7 |
| 20260905050555 | 48 | 0 | 0.0 | 0.0 | 0.00 | 0.04 | 0.00 | 81 | 1012.1 |
| 20260905050055 | 48 | 357 | 0.0 | 0.0 | 0.00 | 0.04 | 0.00 | 81 | 1012.1 |
| 20260905045555 | 48 | 0 | 0.0 | 0.0 | 0.00 | 0.04 | 0.00 | 81 | 1013.1 |
| 20260905045056 | 48 | 16 | 0.0 | 0.0 | 0.00 | 0.04 | 0.00 | 81 | 1012.1 |
| 20260905044555 | 48 | 0 | 0.0 | 0.0 | 0.00 | 0.04 | 0.00 | 81 | 1012.2 |
| 20260905044055 | 48 | 0 | 0.0 | 0.0 | 0.00 | 0.06 | 0.00 | 81 | 1012.2 |
| 20260905043555 | 48 | 0 | 0.0 | 0.0 | 0.00 | 0.06 | 0.00 | 81 | 1012.6 |
| 20260905043055 | 48 | 0 | 0.0 | 0.0 | 0.00 | 0.06 | 0.00 | 81 | 1013.2 |
| 20260905042555 | 48 | 0 | 0.0 | 0.0 | 0.00 | 0.06 | 0.00 | 80 | 1012.1 |
| 20260905042055 | 49 | 0 | 0.0 | 0.0 | 0.00 | 0.06 | 0.00 | 81 | 1012.1 |
| 20260905041555 | 48 | 357 | 0.0 | 0.0 | 0.00 | 0.06 | 0.00 | 80 | 1011.9 |
| 20260905041055 | 49 | 0 | 0.0 | 0.0 | 0.00 | 0.06 | 0.00 | 81 | 1012.7 |
| 20260905040556 | 49 | 68 | 0.0 | 3.0 | 0.00 | 0.06 | 0.00 | 81 | 1012.1 |
| 20260905040056 | 48 | 107 | 0.0 | 3.0 | 0.00 | 0.06 | 0.00 | 80 | 1012.2 |
| 20260905035555 | 49 | 86 | 0.0 | 3.0 | 0.00 | 0.06 | 0.00 | 80 | 1011.7 |
| 20260905035055 | 49 | 12 | 0.0 | 2.0 | 0.00 | 0.06 | 0.00 | 80 | 1011.6 |
| 20260905034556 | 49 | 0 | 0.0 | 0.0 | 0.00 | 0.06 | 0.00 | 80 | 1012.3 |
| 20260905034056 | 49 | 0 | 0.0 | 0.0 | 0.00 | 0.08 | 0.00 | 80 | 1011.8 |
| 20260905033555 | 49 | 0 | 0.0 | 0.0 | 0.00 | 0.08 | 0.00 | 80 | 1011.5 |
| 20260905033055 | 49 | 0 | 0.0 | 1.0 | 0.00 | 0.08 | 0.00 | 80 | 1012.4 |
| 20260905032555 | 49 | 12 | 0.0 | 1.0 | 0.00 | 0.08 | 0.00 | 80 | 1011.5 |
| 20260905032055 | 49 | 12 | 0.0 | 1.0 | 0.00 | 0.08 | 0.00 | 80 | 1011.4 |
| 20260905031555 | 49 | 12 | 0.0 | 0.0 | 0.00 | 0.08 | 0.00 | 80 | 1011.3 |
| 20260905031055 | 49 | 98 | 0.0 | 2.0 | 0.00 | 0.08 | 0.00 | 80 | 1012.4 |
| 20260905030555 | 49 | 75 | 0.0 | 2.0 | 0.00 | 0.08 | 0.00 | 80 | 1012.3 |
| 20260905030055 | 49 | 107 | 0.0 | 2.0 | 0.00 | 0.08 | 0.00 | 80 | 1012.3 |
| 20260905025555 | 49 | 81 | 0.0 | 0.0 | 0.00 | 0.08 | 0.00 | 80 | 1011.8 |
| 20260905025055 | 49 | 81 | 0.0 | 0.0 | 0.00 | 0.08 | 0.00 | 80 | 1012.1 |
| 20260905024555 | 49 | 81 | 0.0 | 1.0 | 0.00 | 0.08 | 0.00 | 80 | 1011.3 |
| 20260905024055 | 49 | 81 | 0.0 | 1.0 | 0.00 | 0.12 | 0.00 | 80 | 1011.6 |
| 20260905023555 | 49 | 70 | 0.0 | 1.0 | 0.00 | 0.12 | 0.00 | 79 | 1011.6 |
| 20260905023055 | 49 | 0 | 0.0 | 3.0 | 0.00 | 0.12 | 0.00 | 80 | 1011.4 |
| 20260905022555 | 49 | 98 | 0.0 | 3.0 | 0.00 | 0.12 | 0.00 | 78 | 1011.4 |
| 20260905022055 | 49 | 107 | 0.0 | 3.0 | 0.00 | 0.12 | 0.00 | 79 | 1011.8 |
| 20260905021555 | 49 | 110 | 0.0 | 1.0 | 0.00 | 0.12 | 0.00 | 79 | 1012.3 |
| 20260905021055 | 49 | 0 | 0.0 | 0.0 | 0.00 | 0.12 | 0.00 | 78 | 1011.3 |
| 20260905020555 | 50 | 42 | 0.0 | 3.0 | 0.00 | 0.12 | 0.00 | 78 | 1011.3 |
| 20260905020055 | 50 | 119 | 0.0 | 3.0 | 0.00 | 0.12 | 0.00 | 78 | 1011.3 |
| 20260905015555 | 50 | 102 | 0.0 | 3.0 | 0.00 | 0.12 | 0.00 | 78 | 1011.2 |
| 20260905015055 | 50 | 347 | 0.0 | 2.0 | 0.00 | 0.12 | 0.00 | 78 | 1011.3 |
| 20260905014555 | 50 | 0 | 0.0 | 1.0 | 0.00 | 0.12 | 0.00 | 78 | 1011.9 |
| 20260905014055 | 50 | 47 | 0.0 | 1.0 | 0.00 | 0.25 | 0.00 | 78 | 1011.3 |
| 20260905013555 | 50 | 78 | 0.0 | 1.0 | 0.00 | 0.25 | 0.00 | 78 | 1011.9 |
| 20260905013055 | 51 | 0 | 0.0 | 1.0 | 0.00 | 0.25 | 0.00 | 78 | 1011.2 |
| 20260905012555 | 50 | 78 | 0.0 | 1.0 | 0.00 | 0.25 | 0.00 | 77 | 1011.5 |
| 20260905012055 | 51 | 0 | 0.0 | 0.0 | 0.00 | 0.25 | 0.00 | 77 | 1011.1 |
| 20260905011555 | 51 | 0 | 0.0 | 2.0 | 0.00 | 0.25 | 0.00 | 77 | 1011.1 |
| 20260905011055 | 51 | 93 | 0.0 | 2.0 | 0.00 | 0.25 | 0.00 | 77 | 1012.3 |
| 20260905010555 | 51 | 67 | 0.0 | 2.0 | 0.00 | 0.25 | 0.00 | 77 | 1011.7 |
| 20260905010055 | 51 | 0 | 0.0 | 0.0 | 0.00 | 0.25 | 0.00 | 77 | 1011.4 |
| 20260905005555 | 51 | 0 | 0.0 | 0.0 | 0.00 | 0.25 | 0.00 | 77 | 1011.3 |
| 20260905005055 | 51 | 0 | 0.0 | 0.0 | 0.00 | 0.25 | 0.00 | 77 | 1010.9 |
| 20260905004646 | 51 | 0 | 0.0 | 0.0 | 0.00 | 0.25 | 0.00 | 77 | 1011.7 |
| 20260905004555 | 51 | 0 | 0.0 | 0.0 | 0.00 | 0.25 | 0.00 | 77 | 1011.7 |
| 20260905004055 | 51 | 0 | 0.0 | 0.0 | 0.00 | 0.39 | 0.00 | 77 | 1010.9 |
| 20260905003555 | 51 | 67 | 0.0 | 0.0 | 0.00 | 0.39 | 0.00 | 76 | 1011.4 |
| 20260905003055 | 51 | 67 | 0.0 | 2.0 | 0.00 | 0.39 | 0.00 | 77 | 1011.5 |
| 20260905002555 | 51 | 0 | 0.0 | 2.0 | 0.00 | 0.39 | 0.00 | 76 | 1010.7 |
| 20260905002055 | 51 | 91 | 0.0 | 2.0 | 0.00 | 0.39 | 0.00 | 76 | 1010.6 |
| 20260905001555 | 51 | 0 | 0.0 | 0.0 | 0.00 | 0.39 | 0.00 | 76 | 1010.7 |
| 20260905001055 | 52 | 0 | 0.0 | 0.0 | 0.00 | 0.39 | 0.00 | 76 | 1011.6 |
| 20260905000555 | 52 | 0 | 0.0 | 0.0 | 0.00 | 0.39 | 0.00 | 75 | 1010.7 |
| 20260905000055 | 52 | 0 | 0.0 | 0.0 | 0.00 | 0.39 | 0.00 | 75 | 1010.6 |
| 20260904235555 | 52 | 0 | 0.0 | 0.0 | 0.00 | 0.39 | 0.00 | 75 | 1010.6 |
| 20260904235055 | 53 | 0 | 0.0 | 0.0 | 0.00 | 0.39 | 0.00 | 74 | 1010.5 |
| 20260904234555 | 53 | 0 | 0.0 | 0.0 | 0.00 | 0.39 | 0.00 | 74 | 1011.2 |
| 20260904234056 | 53 | 0 | 0.0 | 0.0 | 0.00 | 0.59 | 0.00 | 74 | 1011.7 |
| 20260904233555 | 53 | 0 | 0.0 | 0.0 | 0.00 | 0.59 | 0.39 | 73 | 1011.4 |
| 20260904233055 | 53 | 0 | 0.0 | 0.0 | 0.00 | 0.59 | 0.39 | 73 | 1011.5 |
| 20260904232555 | 53 | 0 | 0.0 | 0.0 | 0.00 | 0.59 | 0.39 | 73 | 1010.9 |
| 20260904232055 | 53 | 0 | 0.0 | 0.0 | 0.00 | 0.59 | 0.39 | 74 | 1010.7 |
| 20260904231555 | 54 | 0 | 0.0 | 0.0 | 0.00 | 0.59 | 0.39 | 73 | 1010.4 |
| 20260904231055 | 54 | 0 | 0.0 | 0.0 | 0.00 | 0.59 | 0.39 | 73 | 1011.6 |
| 20260904230555 | 54 | 0 | 0.0 | 0.0 | 0.00 | 0.59 | 0.39 | 73 | 1010.8 |
| 20260904230055 | 54 | 0 | 0.0 | 0.0 | 0.00 | 0.59 | 0.39 | 73 | 1010.7 |
| 20260904225555 | 54 | 0 | 0.0 | 0.0 | 0.00 | 0.59 | 0.39 | 74 | 1010.6 |
| 20260904225055 | 54 | 0 | 0.0 | 0.0 | 0.00 | 0.59 | 0.39 | 72 | 1010.3 |
| 20260904224555 | 54 | 0 | 0.0 | 2.0 | 0.00 | 0.59 | 0.39 | 73 | 1010.8 |
| 20260904224055 | 54 | 0 | 0.0 | 2.0 | 0.00 | 0.62 | 0.39 | 74 | 1011.1 |
| 20260904223555 | 54 | 100 | 0.0 | 2.0 | 0.00 | 0.62 | 0.39 | 74 | 1010.5 |
| 20260904223055 | 54 | 0 | 0.0 | 0.0 | 0.00 | 0.62 | 0.39 | 74 | 1010.6 |
| 20260904222555 | 54 | 336 | 0.0 | 0.0 | 0.00 | 0.62 | 0.39 | 74 | 1010.4 |
| 20260904222055 | 54 | 57 | 0.0 | 2.0 | 0.00 | 0.62 | 0.39 | 73 | 1010.5 |
| 20260904221555 | 54 | 74 | 0.0 | 2.0 | 0.00 | 0.62 | 0.39 | 74 | 1010.1 |
| 20260904221055 | 54 | 107 | 0.0 | 2.0 | 0.00 | 0.62 | 0.39 | 74 | 1011.6 |
| 20260904220555 | 55 | 0 | 0.0 | 6.0 | 0.00 | 0.62 | 0.39 | 75 | 1010.3 |
| 20260904220055 | 55 | 0 | 0.0 | 6.0 | 0.00 | 0.62 | 0.39 | 76 | 1010.5 |
| 20260904215555 | 54 | 165 | 0.0 | 6.0 | 0.00 | 0.62 | 0.39 | 76 | 1010.8 |
| 20260904215055 | 54 | 29 | 1.0 | 1.0 | 0.00 | 0.62 | 0.39 | 76 | 1010.5 |
| 20260904214555 | 54 | 357 | 0.0 | 2.0 | 0.00 | 0.62 | 0.39 | 76 | 1011.2 |
| 20260904214055 | 54 | 70 | 0.0 | 2.0 | 0.00 | 0.62 | 0.39 | 77 | 1009.9 |
| 20260904213555 | 53 | 92 | 0.0 | 2.0 | 0.00 | 0.62 | 0.39 | 77 | 1010.7 |
| 20260904213055 | 53 | 74 | 0.0 | 3.0 | 0.00 | 0.62 | 0.39 | 78 | 1010.8 |
| 20260904212555 | 53 | 124 | 0.0 | 3.0 | 0.00 | 0.62 | 0.39 | 78 | 1010.2 |
| 20260904212055 | 53 | 107 | 0.0 | 3.0 | 0.00 | 0.62 | 0.39 | 78 | 1010.2 |
| 20260904211555 | 53 | 49 | 0.0 | 2.0 | 0.00 | 0.62 | 0.39 | 79 | 1010.2 |
| 20260904211055 | 52 | 49 | 0.0 | 2.0 | 0.00 | 0.62 | 0.39 | 79 | 1010.6 |
| 20260904210555 | 52 | 98 | 0.0 | 2.0 | 0.00 | 0.62 | 0.39 | 80 | 1009.6 |
| 20260904210055 | 52 | 357 | 0.0 | 2.0 | 0.00 | 0.62 | 0.39 | 80 | 1009.6 |
| 20260904205555 | 52 | 92 | 0.0 | 0.0 | 0.00 | 0.62 | 0.39 | 80 | 1010.5 |
| 20260904205055 | 51 | 0 | 0.0 | 0.0 | 0.00 | 0.62 | 0.39 | 79 | 1010.1 |
| 20260904204555 | 51 | 67 | 0.0 | 4.0 | 0.00 | 0.62 | 0.39 | 80 | 1009.5 |
| 20260904204055 | 51 | 92 | 1.0 | 4.0 | 0.00 | 0.66 | 0.39 | 81 | 1010.2 |
| 20260904203555 | 51 | 107 | 0.0 | 4.0 | 0.00 | 0.66 | 0.39 | 81 | 1010.3 |
| 20260904203055 | 52 | 81 | 1.0 | 1.0 | 0.00 | 0.66 | 0.39 | 80 | 1009.5 |
| 20260904202555 | 52 | 81 | 0.0 | 3.0 | 0.00 | 0.66 | 0.39 | 80 | 1009.4 |
| 20260904202055 | 52 | 117 | 0.0 | 3.0 | 0.00 | 0.66 | 0.39 | 81 | 1010.3 |
| 20260904201554 | 52 | 110 | 1.0 | 3.0 | 0.00 | 0.66 | 0.39 | 81 | 1009.5 |
| 20260904201055 | 52 | 134 | 0.0 | 2.0 | 0.00 | 0.66 | 0.39 | 82 | 1010.5 |
| 20260904200555 | 51 | 88 | 0.0 | 1.0 | 0.00 | 0.66 | 0.39 | 82 | 1010.5 |
| 20260904200055 | 51 | 88 | 0.0 | 1.0 | 0.00 | 0.66 | 0.39 | 82 | 1009.9 |
| 20260904195554 | 50 | 0 | 0.0 | 0.0 | 0.00 | 0.66 | 0.39 | 83 | 1010.5 |
| 20260904195054 | 50 | 0 | 0.0 | 0.0 | 0.00 | 0.66 | 0.39 | 82 | 1010.5 |
| 20260904194555 | 50 | 88 | 0.0 | 0.0 | 0.00 | 0.66 | 0.39 | 82 | 1010.8 |
| 20260904194054 | 50 | 88 | 0.0 | 0.0 | 0.00 | 0.67 | 0.39 | 82 | 1009.7 |
| 20260904193554 | 50 | 88 | 0.0 | 0.0 | 0.00 | 0.67 | 0.39 | 82 | 1009.9 |
| 20260904193054 | 49 | 92 | 0.0 | 4.0 | 0.00 | 0.67 | 0.39 | 82 | 1009.6 |
| 20260904192555 | 49 | 93 | 0.0 | 4.0 | 0.00 | 0.67 | 0.39 | 82 | 1009.5 |
| 20260904192055 | 49 | 124 | 0.0 | 4.0 | 0.00 | 0.67 | 0.39 | 82 | 1009.3 |
| 20260904191554 | 49 | 186 | 1.0 | 3.0 | 0.00 | 0.67 | 0.39 | 82 | 1009.7 |
| 20260904191054 | 48 | 109 | 0.0 | 3.0 | 0.00 | 0.67 | 0.39 | 81 | 1009.4 |
| 20260904190554 | 48 | 0 | 0.0 | 2.0 | 0.00 | 0.67 | 0.39 | 81 | 1009.9 |
| 20260904190054 | 48 | 106 | 0.0 | 2.0 | 0.00 | 0.67 | 0.39 | 81 | 1010.3 |
| 20260904185555 | 48 | 114 | 0.0 | 2.0 | 0.00 | 0.67 | 0.39 | 81 | 1009.6 |
| 20260904185054 | 48 | 11 | 0.0 | 1.0 | 0.00 | 0.67 | 0.39 | 81 | 1009.6 |
| 20260904184554 | 49 | 40 | 0.0 | 4.0 | 0.00 | 0.67 | 0.39 | 81 | 1009.7 |
| 20260904184055 | 49 | 0 | 0.0 | 4.0 | 0.00 | 0.70 | 0.39 | 80 | 1009.9 |
| 20260904183554 | 49 | 88 | 0.0 | 4.0 | 0.00 | 0.70 | 0.39 | 80 | 1009.3 |
| 20260904183054 | 49 | 120 | 1.0 | 3.0 | 0.00 | 0.70 | 0.39 | 80 | 1009.6 |
| 20260904182554 | 49 | 126 | 0.0 | 3.0 | 0.00 | 0.70 | 0.39 | 80 | 1009.2 |
| 20260904182054 | 49 | 0 | 0.0 | 3.0 | 0.00 | 0.70 | 0.39 | 79 | 1009.5 |
| 20260904181554 | 49 | 95 | 0.0 | 3.0 | 0.00 | 0.70 | 0.39 | 81 | 1010.3 |
| 20260904181054 | 49 | 0 | 0.0 | 0.0 | 0.00 | 0.70 | 0.39 | 81 | 1009.3 |
| 20260904180554 | 49 | 0 | 0.0 | 3.0 | 0.00 | 0.70 | 0.39 | 80 | 1009.2 |
| 20260904180054 | 48 | 88 | 0.0 | 3.0 | 0.00 | 0.70 | 0.39 | 81 | 1010.1 |
| 20260904175554 | 48 | 110 | 0.0 | 3.0 | 0.00 | 0.70 | 0.39 | 81 | 1008.6 |
| 20260904175054 | 48 | 107 | 1.0 | 4.0 | 0.00 | 0.70 | 0.39 | 81 | 1008.8 |
| 20260904174554 | 48 | 65 | 0.0 | 4.0 | 0.00 | 0.70 | 0.39 | 81 | 1008.8 |
| 20260904174054 | 48 | 102 | 0.0 | 4.0 | 0.00 | 1.02 | 0.39 | 81 | 1009.4 |
| 20260904173554 | 48 | 173 | 0.0 | 2.0 | 0.00 | 1.02 | 0.39 | 80 | 1009.1 |
| 20260904173054 | 48 | 107 | 0.0 | 2.0 | 0.00 | 1.02 | 0.39 | 81 | 1009.4 |
| 20260904172554 | 48 | 39 | 0.0 | 0.0 | 0.00 | 1.02 | 0.39 | 80 | 1008.5 |
| 20260904172054 | 48 | 0 | 0.0 | 4.0 | 0.00 | 1.02 | 0.39 | 81 | 1009.9 |
| 20260904171554 | 48 | 110 | 0.0 | 4.0 | 0.00 | 1.02 | 0.39 | 80 | 1009.7 |
| 20260904171054 | 48 | 120 | 0.0 | 4.0 | 0.00 | 1.02 | 0.39 | 81 | 1009.8 |
| 20260904170554 | 47 | 92 | 0.0 | 2.0 | 0.00 | 1.02 | 0.39 | 81 | 1008.9 |
| 20260904170054 | 47 | 137 | 0.0 | 4.0 | 0.00 | 1.02 | 0.39 | 81 | 1009.3 |
| 20260904165554 | 47 | 0 | 0.0 | 4.0 | 0.00 | 1.02 | 0.39 | 81 | 1008.3 |
| 20260904165054 | 47 | 103 | 0.0 | 4.0 | 0.00 | 1.02 | 0.39 | 81 | 1008.5 |
| 20260904164554 | 47 | 120 | 0.0 | 2.0 | 0.00 | 1.02 | 0.39 | 81 | 1008.5 |
| 20260904164054 | 47 | 120 | 0.0 | 2.0 | 0.00 | 1.07 | 0.39 | 81 | 1008.6 |
| 20260904163554 | 47 | 151 | 0.0 | 2.0 | 0.00 | 1.07 | 0.39 | 81 | 1008.2 |
| 20260904163054 | 47 | 0 | 0.0 | 2.0 | 0.00 | 1.07 | 0.39 | 81 | 1008.8 |
| 20260904162554 | 47 | 64 | 0.0 | 2.0 | 0.00 | 1.07 | 0.39 | 81 | 1008.2 |
| 20260904162054 | 47 | 0 | 0.0 | 0.0 | 0.00 | 1.07 | 0.39 | 80 | 1009.1 |
| 20260904161555 | 47 | 0 | 0.0 | 0.0 | 0.00 | 1.07 | 0.39 | 81 | 1008.9 |
| 20260904161054 | 48 | 0 | 0.0 | 0.0 | 0.00 | 1.07 | 0.39 | 81 | 1009.1 |
| 20260904160554 | 48 | 0 | 0.0 | 0.0 | 0.00 | 1.07 | 0.39 | 81 | 1008.2 |
| 20260904160054 | 49 | 57 | 0.0 | 5.0 | 0.00 | 1.07 | 0.39 | 81 | 1008.9 |
| 20260904155554 | 49 | 96 | 0.0 | 5.0 | 0.00 | 1.07 | 0.39 | 81 | 1008.4 |
| 20260904155054 | 48 | 106 | 0.0 | 5.0 | 0.00 | 1.07 | 0.39 | 81 | 1008.0 |
| 20260904154554 | 48 | 0 | 0.0 | 5.0 | 0.00 | 1.07 | 0.39 | 82 | 1009.1 |
| 20260904154054 | 48 | 130 | 0.0 | 5.0 | 0.00 | 1.17 | 0.39 | 82 | 1008.3 |
| 20260904153554 | 47 | 124 | 1.0 | 3.0 | 0.00 | 1.17 | 0.39 | 82 | 1007.8 |
| 20260904153054 | 46 | 63 | 0.0 | 2.0 | 0.00 | 1.17 | 0.39 | 83 | 1008.5 |
| 20260904152554 | 46 | 63 | 0.0 | 1.0 | 0.00 | 1.17 | 0.39 | 82 | 1007.8 |
| 20260904152054 | 46 | 21 | 0.0 | 3.0 | 0.00 | 1.17 | 0.39 | 81 | 1007.8 |
| 20260904151554 | 46 | 0 | 0.0 | 3.0 | 0.00 | 1.17 | 0.39 | 81 | 1008.0 |
| 20260904151054 | 46 | 110 | 0.0 | 3.0 | 0.00 | 1.17 | 0.39 | 81 | 1008.7 |
| 20260904150554 | 46 | 98 | 0.0 | 5.0 | 0.00 | 1.17 | 0.39 | 81 | 1007.4 |
| 20260904150054 | 46 | 127 | 0.0 | 5.0 | 0.00 | 1.17 | 0.39 | 81 | 1008.2 |
| 20260904145554 | 46 | 165 | 0.0 | 5.0 | 0.00 | 1.17 | 0.39 | 81 | 1007.7 |
| 20260904145054 | 46 | 81 | 0.0 | 2.0 | 0.00 | 1.17 | 0.39 | 81 | 1007.3 |
| 20260904144554 | 46 | 82 | 0.0 | 1.0 | 0.00 | 1.17 | 0.39 | 81 | 1008.3 |
| 20260904144054 | 46 | 166 | 0.0 | 1.0 | 0.00 | 1.30 | 0.39 | 81 | 1007.2 |
| 20260904143554 | 46 | 84 | 0.0 | 2.0 | 0.00 | 1.30 | 0.39 | 81 | 1007.2 |
| 20260904143054 | 46 | 86 | 0.0 | 2.0 | 0.00 | 1.30 | 0.39 | 81 | 1007.4 |
| 20260904142554 | 46 | 91 | 0.0 | 2.0 | 0.00 | 1.30 | 0.39 | 81 | 1006.9 |
| 20260904142054 | 46 | 112 | 0.0 | 3.0 | 0.00 | 1.30 | 0.39 | 81 | 1006.9 |
| 20260904141554 | 46 | 102 | 0.0 | 3.0 | 0.00 | 1.30 | 0.39 | 81 | 1007.5 |
| 20260904141054 | 46 | 126 | 0.0 | 3.0 | 0.00 | 1.30 | 0.39 | 81 | 1007.3 |
| 20260904140554 | 46 | 0 | 0.0 | 0.0 | 0.00 | 1.30 | 0.39 | 81 | 1006.7 |
| 20260904140054 | 46 | 131 | 0.0 | 4.0 | 0.00 | 1.30 | 0.39 | 81 | 1006.7 |
| 20260904135554 | 46 | 54 | 0.0 | 4.0 | 0.00 | 1.30 | 0.39 | 81 | 1006.6 |
| 20260904135054 | 46 | 28 | 0.0 | 4.0 | 0.00 | 1.30 | 0.39 | 81 | 1006.6 |
| 20260904134554 | 46 | 148 | 0.0 | 1.0 | 0.00 | 1.30 | 0.39 | 81 | 1006.6 |
| 20260904134054 | 46 | 148 | 0.0 | 1.0 | 0.00 | 1.36 | 0.39 | 80 | 1006.5 |
| 20260904133554 | 46 | 148 | 0.0 | 1.0 | 0.00 | 1.36 | 0.39 | 81 | 1007.5 |
| 20260904133054 | 46 | 0 | 0.0 | 3.0 | 0.00 | 1.36 | 0.39 | 80 | 1006.6 |
| 20260904132554 | 45 | 70 | 0.0 | 3.0 | 0.00 | 1.36 | 0.39 | 81 | 1007.3 |